Home > Weather > Belém > Past weeks

Flag for Brazil Weather for the Past 2 Weeks in Belém, Pará, Brazil

Now
79 °F

Passing clouds.


Feels Like: 82 °F
Forecast: N/A
Wind: 3 mph from East

Location: Belem Aeroporto

Current Time: Feb 7, 2016 at 7:59:11 PM

Latest Report: Feb 7, 2016 at 7:00 PM


Visibility: N/A

Pressure: 29.86 "Hg

Humidity: 89%

Dew point: 75 °F

Location of BelémLocation

Historic Weather in Belém — Graph

°F

Belém Temperature Yesterday

Maximum temperature yesterday: 86 °F (at 12:00 PM)
Minimum temperature yesterday: 75 °F (at 2:00 AM)
Average temperature yesterday: 78 °F

High & Low Weather Summary for the Past Weeks

 TemperatureHumidityPressure
High90 °F (Feb 7, 1:00 PM)100% (Feb 4, 6:00 AM)29.98 "Hg (Feb 4, 6:00 AM)
Low41 °F (Feb 5, 3:00 PM)59% (Feb 7, 1:00 PM)29.77 "Hg (Feb 3, 5:00 PM)
Average78 °F86%29.88 "Hg
* Reported Jan 23 6:00 PM — Feb 7 6:00 PM, Belém, Weather by CustomWeather, © 2016

Note: Actual official high and low records may vary slightly from our data, if they occured in-between our weather recording intervals... More about our weather records

Advertising

Belém Weather History for the Previous 24 Hours

 ConditionsComfort  
Time TempWeatherWind HumidityBarometerVisibility
6:00 PM
Sun, Feb 7
81 °FScattered clouds.9 mph84%29.83 "HgN/A
5:00 PM81 °FScattered clouds.14 mph79%29.80 "HgN/A
4:00 PM81 °FScattered clouds.7 mph89%29.80 "HgN/A
3:00 PM41 °FThunderstorms. Broken clouds.9 mph100%29.80 "HgN/A
2:00 PM84 °FPartly sunny.9 mph79%29.86 "HgN/A
1:00 PM90 °FBroken clouds.9 mph59%29.89 "HgN/A
12:00 PM88 °FPartly sunny.10 mph66%29.92 "HgN/A
11:00 AM86 °FPartly sunny.14 mph70%29.92 "HgN/A
10:00 AM84 °FScattered clouds.14 mph74%29.95 "HgN/A
9:00 AM81 °FScattered clouds.9 mph89%29.92 "HgN/A
8:00 AM79 °FScattered clouds.7 mph94%29.92 "HgN/A
7:00 AM77 °FPassing clouds.5 mph94%29.89 "HgN/A
6:00 AM77 °FPassing clouds.6 mph94%29.86 "HgN/A
5:00 AM77 °FPassing clouds.3 mph94%29.86 "HgN/A
4:00 AM77 °FPassing clouds.6 mph94%29.86 "HgN/A
3:00 AM77 °FClear.3 mph94%29.86 "Hg10 mi
2:00 AM77 °FClear.2 mph94%29.89 "Hg10 mi
1:00 AM77 °FClear.2 mph94%29.92 "Hg10 mi
12:00 AM77 °FPassing clouds.3 mph94%29.92 "HgN/A
11:00 PM
Sat, Feb 6
77 °FPassing clouds.2 mph94%29.95 "HgN/A
10:00 PM77 °FPassing clouds.2 mph94%29.92 "HgN/A
9:00 PM77 °FPartly cloudy.No wind94%29.92 "HgN/A
8:00 PM77 °FPassing clouds.2 mph94%29.92 "HgN/A
7:00 PM77 °FPartly cloudy.6 mph94%29.89 "HgN/A
Weather by CustomWeather, © 2016

See weather overviewHow to use our weather pages